User: anonymous   Login
Location: Mactaquac Provincial Park
(45.9573°N, 66.8897°W)
Time: 19:14:17
(UTC-03:00)
Language:

Cosmos 1867 - Orbit

View from above orbital plane
View from above orbital plane
View from above satellite
View from above satellite

Ground track
Ground track

The orbit data is extracted from the following two-line orbital elements,

1 18187U 87060A   15087.12583691  .00000010  00000-0  41604-4 0  9992
2 18187 065.0124 341.3904 0014403 278.6233 081.3219 14.31049343447799
Epoch (UTC): 28 March 2015 03:01:12
Eccentricity: 0.0014403
inclination: 65.0124°
perigee height: 778 km
apogee height: 798 km
right ascension of ascending node: 341.3904°
argument of perigee: 278.6233°
revolutions per day: 14.31049343
mean anomaly at epoch: 81.3219°
orbit number at epoch: 44779

The dashed part of the orbit path shows where the satellite is in the earth's shadow,  

DLR